When you browse on this site, cookies collect data to enhance your experience and personalize the content and advertising you see.
Visit our Privacy Policy to learn more. By continuing to use the site, you agree to this use of cookies and data.
  • In Österreich
  • Länderverzeichnis
  • Für 7 Tage
  • Wassertemperatur
  • Wetterkarte
  • News
  • Widgets
  • user-avatar
    Anmelden

    Stündliche Wetter Barra

    Heute, 27 Januar, Montag

    Zeit Temperatur Niederschläge Wind Luftdruck Luftfeuchtigkeit
    00:00 +29°C° 0 mm 6 m/S 759 mmHg 17%
    01:00 +29°C° 0 mm 6 m/S 759 mmHg 19%
    02:00 +28°C° 0 mm 6 m/S 759 mmHg 20%
    03:00 +28°C° 0 mm 6 m/S 758 mmHg 21%
    04:00 +27°C° 0 mm 6 m/S 758 mmHg 23%
    05:00 +27°C° 0 mm 6 m/S 758 mmHg 24%
    06:00 +27°C° 0 mm 6 m/S 758 mmHg 22%
    07:00 +28°C° 0 mm 6 m/S 758 mmHg 20%
    08:00 +29°C° 0 mm 6 m/S 759 mmHg 18%
    09:00 +33°C° 0 mm 6 m/S 759 mmHg 15%
    10:00 +36°C° 0 mm 6 m/S 759 mmHg 12%
    11:00 +40°C° 0 mm 6 m/S 758 mmHg 8%
    12:00 +41°C° 0 mm 6 m/S 758 mmHg 8%
    13:00 +42°C° 0 mm 5 m/S 757 mmHg 7%
    14:00 +43°C° 0 mm 4 m/S 756 mmHg 7%
    15:00 +42°C° 0 mm 4 m/S 756 mmHg 8%
    16:00 +41°C° 0 mm 5 m/S 756 mmHg 9%
    17:00 +41°C° 0 mm 6 m/S 756 mmHg 9%
    18:00 +36°C° 0 mm 6 m/S 756 mmHg 17%
    19:00 +33°C° 0 mm 6 m/S 757 mmHg 25%
    20:00 +28°C° 0 mm 7 m/S 758 mmHg 33%
    21:00 +27°C° 0 mm 6 m/S 758 mmHg 34%
    22:00 +26°C° 0 mm 6 m/S 758 mmHg 34%
    23:00 +26°C° 0 mm 5 m/S 759 mmHg 35%

    Morgen, 28 Januar, Dienstag

    Zeit Temperatur Niederschläge Wind Luftdruck Luftfeuchtigkeit
    00:00 +25°C° 0 mm 5 m/S 758 mmHg 36%
    01:00 +23°C° 0 mm 4 m/S 758 mmHg 37%
    02:00 +22°C° 0 mm 4 m/S 758 mmHg 38%
    03:00 +22°C° 0 mm 4 m/S 757 mmHg 37%
    04:00 +22°C° 0 mm 4 m/S 757 mmHg 36%
    05:00 +21°C° 0 mm 4 m/S 757 mmHg 35%
    06:00 +23°C° 0 mm 4 m/S 757 mmHg 31%
    07:00 +25°C° 0 mm 3 m/S 758 mmHg 26%
    08:00 +26°C° 0 mm 3 m/S 758 mmHg 21%
    09:00 +29°C° 0 mm 3 m/S 758 mmHg 18%
    10:00 +32°C° 0 mm 2 m/S 758 mmHg 14%
    11:00 +36°C° 0 mm 2 m/S 758 mmHg 11%
    12:00 +37°C° 0 mm 3 m/S 758 mmHg 11%
    13:00 +38°C° 0 mm 3 m/S 757 mmHg 12%
    14:00 +40°C° 0 mm 4 m/S 756 mmHg 12%
    15:00 +37°C° 0 mm 4 m/S 756 mmHg 17%
    16:00 +34°C° 0 mm 5 m/S 756 mmHg 22%
    17:00 +32°C° 0 mm 5 m/S 756 mmHg 26%
    18:00 +29°C° 0 mm 5 m/S 757 mmHg 35%
    19:00 +26°C° 0 mm 4 m/S 757 mmHg 43%
    20:00 +24°C° 0 mm 3 m/S 758 mmHg 51%
    21:00 +24°C° 0 mm 3 m/S 758 mmHg 53%
    22:00 +24°C° 0 mm 3 m/S 759 mmHg 55%
    23:00 +23°C° 0 mm 2 m/S 759 mmHg 56%

    übermorgen, 29 Januar, Mittwoch

    Zeit Temperatur Niederschläge Wind Luftdruck Luftfeuchtigkeit
    00:00 +23°C° 0 mm 2 m/S 759 mmHg 56%
    01:00 +22°C° 0 mm 3 m/S 758 mmHg 56%
    02:00 +22°C° 0 mm 3 m/S 758 mmHg 56%
    03:00 +22°C° 0 mm 3 m/S 758 mmHg 57%
    04:00 +21°C° 0 mm 2 m/S 758 mmHg 57%
    05:00 +21°C° 0 mm 2 m/S 758 mmHg 58%
    06:00 +23°C° 0 mm 2 m/S 758 mmHg 54%
    07:00 +24°C° 0 mm 1 m/S 758 mmHg 50%
    08:00 +25°C° 0 mm 1 m/S 759 mmHg 46%
    09:00 +28°C° 0 mm 1 m/S 759 mmHg 37%
    10:00 +31°C° 0 mm 1 m/S 759 mmHg 28%
    11:00 +35°C° 0 mm 1 m/S 759 mmHg 19%
    12:00 +37°C° 0 mm 2 m/S 758 mmHg 18%
    13:00 +38°C° 0 mm 3 m/S 757 mmHg 16%
    14:00 +40°C° 0 mm 4 m/S 756 mmHg 14%
    15:00 +36°C° 0 mm 4 m/S 756 mmHg 20%
    16:00 +34°C° 0 mm 5 m/S 756 mmHg 27%
    17:00 +32°C° 0 mm 6 m/S 757 mmHg 33%
    18:00 +28°C° 0 mm 5 m/S 757 mmHg 44%
    19:00 +26°C° 0 mm 4 m/S 758 mmHg 55%
    20:00 +22°C° 0 mm 3 m/S 759 mmHg 66%
    21:00 +22°C° 0 mm 3 m/S 759 mmHg 66%
    22:00 +23°C° 0 mm 2 m/S 759 mmHg 67%
    23:00 +23°C° 0 mm 2 m/S 759 mmHg 67%

    30 Januar, Donnerstag

    Zeit Temperatur Niederschläge Wind Luftdruck Luftfeuchtigkeit
    00:00 +23°C° 0 mm 2 m/S 759 mmHg 65%
    01:00 +23°C° 0 mm 2 m/S 758 mmHg 63%
    02:00 +23°C° 0 mm 2 m/S 758 mmHg 61%
    03:00 +21°C° 0 mm 2 m/S 758 mmHg 60%
    04:00 +21°C° 0 mm 2 m/S 758 mmHg 59%
    05:00 +22°C° 0 mm 1 m/S 758 mmHg 57%
    06:00 +23°C° 0 mm 2 m/S 759 mmHg 50%
    07:00 +25°C° 0 mm 2 m/S 759 mmHg 44%
    08:00 +26°C° 0 mm 2 m/S 759 mmHg 37%
    09:00 +30°C° 0 mm 2 m/S 759 mmHg 28%
    10:00 +34°C° 0 mm 3 m/S 759 mmHg 20%
    11:00 +38°C° 0 mm 3 m/S 759 mmHg 11%
    12:00 +39°C° 0 mm 3 m/S 758 mmHg 10%
    13:00 +42°C° 0 mm 3 m/S 758 mmHg 8%
    14:00 +43°C° 0 mm 3 m/S 757 mmHg 7%
    15:00 +43°C° 0 mm 3 m/S 757 mmHg 7%
    16:00 +42°C° 0 mm 4 m/S 756 mmHg 7%
    17:00 +42°C° 0 mm 4 m/S 756 mmHg 7%
    18:00 +37°C° 0 mm 4 m/S 757 mmHg 11%
    19:00 +34°C° 0 mm 4 m/S 758 mmHg 14%
    20:00 +29°C° 0 mm 3 m/S 758 mmHg 18%
    21:00 +28°C° 0 mm 3 m/S 758 mmHg 20%
    22:00 +27°C° 0 mm 2 m/S 758 mmHg 22%
    23:00 +26°C° 0 mm 2 m/S 759 mmHg 25%

    31 Januar, Freitag

    Zeit Temperatur Niederschläge Wind Luftdruck Luftfeuchtigkeit
    00:00 +26°C° 0 mm 2 m/S 758 mmHg 23%
    01:00 +26°C° 0 mm 3 m/S 758 mmHg 21%
    02:00 +26°C° 0 mm 3 m/S 758 mmHg 19%
    03:00 +25°C° 0 mm 4 m/S 758 mmHg 19%
    04:00 +25°C° 0 mm 4 m/S 758 mmHg 20%
    05:00 +25°C° 0 mm 5 m/S 758 mmHg 20%
    06:00 +26°C° 0 mm 6 m/S 758 mmHg 19%
    07:00 +28°C° 0 mm 7 m/S 759 mmHg 18%
    08:00 +29°C° 0 mm 8 m/S 759 mmHg 17%
    09:00 +33°C° 0 mm 8 m/S 759 mmHg 15%
    10:00 +35°C° 0 mm 8 m/S 759 mmHg 13%
    11:00 +39°C° 0 mm 8 m/S 759 mmHg 11%
    12:00 +41°C° 0 mm 7 m/S 758 mmHg 10%
    13:00 +43°C° 0 mm 7 m/S 757 mmHg 9%
    14:00 +44°C° 0 mm 6 m/S 757 mmHg 8%
    15:00 +44°C° 0 mm 6 m/S 756 mmHg 8%
    16:00 +42°C° 0 mm 5 m/S 756 mmHg 8%
    17:00 +42°C° 0 mm 5 m/S 756 mmHg 9%
    18:00 +37°C° 0 mm 5 m/S 757 mmHg 16%
    19:00 +33°C° 0 mm 4 m/S 757 mmHg 23%
    20:00 +28°C° 0 mm 4 m/S 758 mmHg 31%
    21:00 +27°C° 0 mm 4 m/S 758 mmHg 40%
    22:00 +26°C° 0 mm 4 m/S 759 mmHg 50%
    23:00 +24°C° 0 mm 3 m/S 759 mmHg 59%

    1 Februar, Samstag

    Zeit Temperatur Niederschläge Wind Luftdruck Luftfeuchtigkeit
    00:00 +24°C° 0 mm 2 m/S 759 mmHg 61%
    01:00 +23°C° 0 mm 1 m/S 759 mmHg 63%
    02:00 +20°C° 0 mm 0 m/S 758 mmHg 65%
    03:00 +22°C° 0 mm 1 m/S 758 mmHg 59%
    04:00 +22°C° 0 mm 1 m/S 758 mmHg 54%
    05:00 +21°C° 0 mm 2 m/S 758 mmHg 48%
    06:00 +24°C° 0 mm 2 m/S 759 mmHg 40%
    07:00 +25°C° 0 mm 3 m/S 759 mmHg 32%
    08:00 +26°C° 0 mm 3 m/S 760 mmHg 24%
    09:00 +29°C° 0 mm 3 m/S 759 mmHg 19%
    10:00 +34°C° 0 mm 4 m/S 759 mmHg 15%
    11:00 +37°C° 0 mm 4 m/S 759 mmHg 11%
    12:00 +38°C° 0 mm 3 m/S 758 mmHg 10%
    13:00 +39°C° 0 mm 3 m/S 757 mmHg 10%
    14:00 +42°C° 0 mm 3 m/S 757 mmHg 10%
    15:00 +40°C° 0 mm 4 m/S 756 mmHg 11%
    16:00 +39°C° 0 mm 5 m/S 756 mmHg 13%
    17:00 +38°C° 0 mm 6 m/S 756 mmHg 14%
    18:00 +33°C° 0 mm 5 m/S 757 mmHg 23%
    19:00 +29°C° 0 mm 4 m/S 757 mmHg 32%
    20:00 +25°C° 0 mm 4 m/S 757 mmHg 41%
    21:00 +23°C° 0 mm 4 m/S 758 mmHg 44%
    22:00 +24°C° 0 mm 3 m/S 758 mmHg 47%
    23:00 +22°C° 0 mm 3 m/S 758 mmHg 51%
    Mehr zeigen